| time (UTC) | temp F | wind direction | speed MPH | gust MPH | rain 1hr in | rain 24hr in | rain mn in | humidity % | barometer mb |
| 20260901155116 | 56 | 192 | 3.0 | 6.0 | 0.00 | 0.00 | 0.00 | 92 | 1007.2 |
| 20260901154103 | 56 | 184 | 1.0 | 6.0 | 0.00 | 0.00 | 0.00 | 93 | 1007.2 |
| 20260901153047 | 56 | 165 | 1.0 | 4.0 | 0.00 | 0.00 | 0.00 | 94 | 1007.2 |
| 20260901152036 | 55 | 217 | 0.0 | 0.0 | 0.00 | 0.00 | 0.00 | 95 | 1007.1 |
| 20260901151041 | 55 | 129 | 1.0 | 4.0 | 0.00 | 0.00 | 0.00 | 95 | 1007.1 |
| 20260901144855 | 54 | 175 | 2.0 | 4.0 | 0.00 | 0.00 | 0.00 | 96 | 1006.9 |
| 20260901143909 | 54 | 179 | 2.0 | 7.0 | 0.00 | 0.00 | 0.00 | 96 | 1006.9 |
| 20260901142907 | 54 | 175 | 2.0 | 7.0 | 0.00 | 0.00 | 0.00 | 96 | 1006.8 |
| 20260901135612 | 52 | 165 | 1.0 | 4.0 | 0.00 | 0.00 | 0.00 | 95 | 1006.5 |
| 20260901134616 | 52 | 152 | 0.0 | 3.0 | 0.00 | 0.00 | 0.00 | 96 | 1006.3 |
| 20260901133616 | 52 | 169 | 0.0 | 0.0 | 0.00 | 0.00 | 0.00 | 95 | 1006.3 |
| 20260901130324 | 52 | 118 | 0.0 | 1.0 | 0.00 | 0.00 | 0.00 | 95 | 1006.1 |
| 20260901125346 | 52 | 134 | 0.0 | 1.0 | 0.00 | 0.00 | 0.00 | 95 | 1006.1 |
| 20260901124323 | 52 | 137 | 0.0 | 1.0 | 0.00 | 0.00 | 0.00 | 95 | 1006.2 |
| 20260901123334 | 51 | 176 | 0.0 | 0.0 | 0.00 | 0.00 | 0.00 | 95 | 1006.2 |
| 20260901122339 | 51 | 176 | 0.0 | 0.0 | 0.00 | 0.00 | 0.00 | 95 | 1006.1 |
| 20260901121333 | 51 | 176 | 0.0 | 0.0 | 0.00 | 0.00 | 0.00 | 95 | 1006.1 |
| 20260901120301 | 51 | 176 | 0.0 | 0.0 | 0.00 | 0.00 | 0.00 | 95 | 1006.1 |
| 20260901115313 | 51 | 176 | 0.0 | 0.0 | 0.00 | 0.00 | 0.00 | 94 | 1006.2 |
| 20260901114321 | 51 | 186 | 0.0 | 1.0 | 0.00 | 0.00 | 0.00 | 94 | 1006.2 |
| 20260901113300 | 52 | 177 | 0.0 | 0.0 | 0.00 | 0.00 | 0.00 | 94 | 1006.3 |
| 20260901112324 | 52 | 150 | 0.0 | 0.0 | 0.00 | 0.00 | 0.00 | 94 | 1006.3 |
| 20260901111329 | 52 | 150 | 0.0 | 0.0 | 0.00 | 0.00 | 0.00 | 93 | 1006.4 |
| 20260901110346 | 53 | 150 | 0.0 | 0.0 | 0.00 | 0.00 | 0.00 | 93 | 1006.3 |
| 20260901105344 | 53 | 150 | 0.0 | 0.0 | 0.00 | 0.00 | 0.00 | 93 | 1006.2 |
| 20260901104338 | 52 | 161 | 0.0 | 2.0 | 0.00 | 0.00 | 0.00 | 92 | 1006.2 |
| 20260901103338 | 53 | 173 | 0.0 | 2.0 | 0.00 | 0.00 | 0.00 | 93 | 1006.2 |
| 20260901101228 | 52 | 164 | 0.0 | 3.0 | 0.00 | 0.00 | 0.00 | 92 | 1006.4 |
| 20260901100212 | 53 | 277 | 0.0 | 0.0 | 0.00 | 0.00 | 0.00 | 91 | 1006.3 |
| 20260901095223 | 53 | 277 | 0.0 | 0.0 | 0.00 | 0.00 | 0.00 | 91 | 1006.3 |
| 20260901094222 | 53 | 277 | 0.0 | 0.0 | 0.00 | 0.00 | 0.00 | 92 | 1006.2 |
| 20260901093157 | 54 | 277 | 0.0 | 0.0 | 0.00 | 0.00 | 0.00 | 90 | 1006.2 |
| 20260901092138 | 54 | 277 | 0.0 | 0.0 | 0.00 | 0.00 | 0.00 | 91 | 1006.2 |
| 20260901091121 | 54 | 277 | 0.0 | 0.0 | 0.00 | 0.00 | 0.00 | 90 | 1006.2 |
| 20260901090140 | 54 | 277 | 0.0 | 0.0 | 0.00 | 0.00 | 0.00 | 90 | 1006.2 |
| 20260901083938 | 54 | 277 | 0.0 | 0.0 | 0.00 | 0.00 | 0.00 | 91 | 1006.2 |
| 20260901082952 | 54 | 277 | 0.0 | 0.0 | 0.00 | 0.00 | 0.00 | 89 | 1006.3 |
| 20260901082013 | 55 | 277 | 0.0 | 0.0 | 0.00 | 0.00 | 0.00 | 88 | 1006.3 |
| 20260901080939 | 55 | 277 | 0.0 | 0.0 | 0.00 | 0.00 | 0.00 | 88 | 1006.2 |
| 20260901080004 | 56 | 277 | 0.0 | 0.0 | 0.00 | 0.00 | 0.00 | 87 | 1006.1 |
| 20260901074934 | 56 | 277 | 0.0 | 0.0 | 0.00 | 0.00 | 0.00 | 87 | 1006.1 |
| 20260901072741 | 55 | 277 | 0.0 | 0.0 | 0.00 | 0.00 | 0.00 | 87 | 1006.1 |
| 20260901070610 | 56 | 277 | 0.0 | 0.0 | 0.00 | 0.00 | 0.00 | 86 | 1006.1 |
| 20260901065604 | 56 | 277 | 0.0 | 0.0 | 0.00 | 0.00 | 0.00 | 85 | 1006.1 |
| 20260901064600 | 56 | 277 | 0.0 | 0.0 | 0.00 | 0.00 | 0.00 | 85 | 1006.3 |
| 20260901063611 | 57 | 277 | 0.0 | 0.0 | 0.00 | 0.00 | 0.00 | 84 | 1006.3 |
| 20260901062610 | 57 | 277 | 0.0 | 0.0 | 0.00 | 0.00 | 0.00 | 83 | 1006.3 |
| 20260901061609 | 57 | 277 | 0.0 | 0.0 | 0.00 | 0.00 | 0.00 | 83 | 1006.4 |
| 20260901055419 | 58 | 277 | 0.0 | 0.0 | 0.00 | 0.00 | 0.00 | 82 | 1006.4 |
| 20260901053302 | 59 | 277 | 0.0 | 0.0 | 0.00 | 0.00 | 0.00 | 80 | 1006.5 |
| 20260901052312 | 59 | 277 | 0.0 | 0.0 | 0.00 | 0.00 | 0.00 | 79 | 1006.3 |
| 20260901051253 | 60 | 279 | 0.0 | 0.0 | 0.00 | 0.00 | 0.00 | 79 | 1006.3 |
| 20260901050251 | 60 | 279 | 0.0 | 0.0 | 0.00 | 0.00 | 0.00 | 79 | 1006.4 |
| 20260901045248 | 60 | 279 | 0.0 | 0.0 | 0.00 | 0.00 | 0.00 | 79 | 1006.5 |
| 20260901044304 | 60 | 279 | 0.0 | 0.0 | 0.00 | 0.00 | 0.00 | 78 | 1006.3 |
| 20260901042147 | 60 | 279 | 0.0 | 0.0 | 0.00 | 0.00 | 0.00 | 78 | 1006.3 |
| 20260901041119 | 60 | 279 | 0.0 | 0.0 | 0.00 | 0.00 | 0.00 | 79 | 1006.2 |
| 20260901040109 | 61 | 279 | 0.0 | 0.0 | 0.00 | 0.00 | 0.00 | 76 | 1006.2 |
| 20260901035036 | 62 | 279 | 0.0 | 0.0 | 0.00 | 0.00 | 0.00 | 75 | 1006.2 |
| 20260901034026 | 62 | 279 | 0.0 | 0.0 | 0.00 | 0.00 | 0.00 | 75 | 1006.2 |
| 20260901033032 | 61 | 279 | 0.0 | 0.0 | 0.00 | 0.00 | 0.00 | 76 | 1006.2 |
| 20260901032010 | 62 | 279 | 0.0 | 0.0 | 0.00 | 0.00 | 0.00 | 76 | 1006.3 |
| 20260901031015 | 63 | 279 | 0.0 | 2.0 | 0.00 | 0.00 | 0.00 | 73 | 1006.2 |
| 20260901030020 | 65 | 280 | 0.0 | 2.0 | 0.00 | 0.00 | 0.00 | 68 | 1006.3 |
| 20260901025028 | 65 | 355 | 0.0 | 0.0 | 0.00 | 0.00 | 0.00 | 69 | 1006.2 |
| 20260901024007 | 66 | 355 | 0.0 | 0.0 | 0.00 | 0.00 | 0.00 | 68 | 1006.2 |
| 20260901022955 | 65 | 26 | 0.0 | 2.0 | 0.00 | 0.00 | 0.00 | 70 | 1006.3 |
| 20260901020915 | 69 | 28 | 1.0 | 4.0 | 0.00 | 0.00 | 0.00 | 63 | 1006.2 |
| 20260901014801 | 68 | 46 | 2.0 | 4.0 | 0.00 | 0.00 | 0.00 | 65 | 1006.5 |
| 20260901013811 | 69 | 25 | 0.0 | 2.0 | 0.00 | 0.00 | 0.00 | 64 | 1006.5 |
| 20260901011736 | 69 | 5 | 1.0 | 4.0 | 0.00 | 0.00 | 0.00 | 63 | 1006.6 |
| 20260901010705 | 70 | 42 | 2.0 | 4.0 | 0.00 | 0.00 | 0.00 | 62 | 1006.8 |
| 20260901005705 | 70 | 40 | 2.0 | 6.0 | 0.00 | 0.00 | 0.00 | 62 | 1006.7 |
| 20260901004725 | 71 | 39 | 2.0 | 6.0 | 0.00 | 0.00 | 0.00 | 60 | 1006.7 |
| 20260901003725 | 72 | 25 | 2.0 | 6.0 | 0.00 | 0.00 | 0.00 | 61 | 1006.8 |
| 20260901002720 | 71 | 5 | 2.0 | 6.0 | 0.00 | 0.00 | 0.00 | 61 | 1006.9 |
| 20260901001646 | 71 | 330 | 1.0 | 4.0 | 0.00 | 0.00 | 0.00 | 62 | 1007.0 |
| 20260901000706 | 70 | 20 | 2.0 | 4.0 | 0.00 | 0.00 | 0.00 | 62 | 1007.0 |
| 20260831235657 | 71 | 344 | 2.0 | 7.0 | 0.00 | 0.00 | 0.00 | 62 | 1007.2 |
| 20260831234626 | 70 | 349 | 3.0 | 8.0 | 0.00 | 0.00 | 0.00 | 61 | 1007.2 |
| 20260831233628 | 71 | 46 | 3.0 | 8.0 | 0.00 | 0.00 | 0.00 | 60 | 1007.3 |
| 20260831232618 | 71 | 42 | 3.0 | 7.0 | 0.00 | 0.00 | 0.00 | 61 | 1007.4 |
| 20260831231618 | 72 | 44 | 2.0 | 7.0 | 0.00 | 0.00 | 0.00 | 60 | 1007.6 |
| 20260831230626 | 71 | 345 | 3.0 | 7.0 | 0.00 | 0.00 | 0.00 | 62 | 1007.7 |
| 20260831224520 | 70 | 45 | 3.0 | 7.0 | 0.00 | 0.00 | 0.00 | 62 | 1008.1 |
| 20260831223526 | 71 | 38 | 4.0 | 8.0 | 0.00 | 0.00 | 0.00 | 61 | 1008.1 |
| 20260831222510 | 71 | 28 | 3.0 | 8.0 | 0.00 | 0.00 | 0.00 | 61 | 1008.2 |
| 20260831221458 | 70 | 53 | 4.0 | 7.0 | 0.00 | 0.00 | 0.00 | 62 | 1008.4 |
| 20260831215300 | 70 | 31 | 3.0 | 7.0 | 0.00 | 0.00 | 0.00 | 61 | 1008.6 |
| 20260831213114 | 71 | 49 | 3.0 | 9.0 | 0.00 | 0.00 | 0.00 | 60 | 1008.9 |
| 20260831212136 | 71 | 339 | 3.0 | 9.0 | 0.00 | 0.00 | 0.00 | 61 | 1009.1 |
| 20260831211140 | 71 | 340 | 3.0 | 9.0 | 0.00 | 0.00 | 0.00 | 61 | 1009.1 |
| 20260831210151 | 71 | 75 | 3.0 | 9.0 | 0.00 | 0.00 | 0.00 | 62 | 1009.2 |
| 20260831205157 | 70 | 74 | 4.0 | 10.0 | 0.00 | 0.00 | 0.00 | 61 | 1009.3 |
| 20260831204142 | 69 | 303 | 4.0 | 10.0 | 0.00 | 0.00 | 0.00 | 63 | 1009.4 |
| 20260831203108 | 68 | 63 | 4.0 | 9.0 | 0.00 | 0.00 | 0.00 | 63 | 1009.5 |
| 20260831202124 | 68 | 5 | 4.0 | 9.0 | 0.00 | 0.00 | 0.00 | 65 | 1009.8 |
| 20260831201132 | 69 | 44 | 3.0 | 9.0 | 0.00 | 0.00 | 0.00 | 63 | 1009.9 |
| 20260831200129 | 69 | 17 | 3.0 | 10.0 | 0.00 | 0.00 | 0.00 | 64 | 1010.0 |
| 20260831195103 | 68 | 336 | 3.0 | 10.0 | 0.00 | 0.00 | 0.00 | 66 | 1010.0 |
| 20260831194107 | 68 | 331 | 3.0 | 8.0 | 0.00 | 0.00 | 0.00 | 65 | 1010.1 |
| 20260831193033 | 67 | 333 | 2.0 | 6.0 | 0.00 | 0.00 | 0.00 | 66 | 1010.3 |
| 20260831190917 | 66 | 325 | 3.0 | 9.0 | 0.00 | 0.00 | 0.00 | 67 | 1010.6 |
| 20260831185941 | 65 | 56 | 4.0 | 9.0 | 0.00 | 0.00 | 0.00 | 69 | 1010.7 |
| 20260831183856 | 66 | 74 | 3.0 | 9.0 | 0.00 | 0.00 | 0.00 | 71 | 1010.9 |
| 20260831181724 | 65 | 346 | 3.0 | 8.0 | 0.00 | 0.00 | 0.00 | 72 | 1011.3 |
| 20260831175517 | 64 | 26 | 3.0 | 9.0 | 0.00 | 0.00 | 0.00 | 74 | 1011.3 |
| 20260831174508 | 63 | 37 | 2.0 | 7.0 | 0.00 | 0.00 | 0.00 | 74 | 1011.4 |
| 20260831173516 | 63 | 30 | 2.0 | 7.0 | 0.00 | 0.00 | 0.00 | 77 | 1011.5 |
| 20260831172523 | 63 | 328 | 2.0 | 6.0 | 0.00 | 0.00 | 0.00 | 76 | 1011.7 |
| 20260831171542 | 62 | 23 | 1.0 | 6.0 | 0.00 | 0.00 | 0.00 | 77 | 1011.7 |
| 20260831170550 | 62 | 67 | 1.0 | 7.0 | 0.00 | 0.00 | 0.00 | 78 | 1011.7 |
| 20260831164504 | 61 | 342 | 1.0 | 5.0 | 0.00 | 0.00 | 0.00 | 80 | 1011.8 |
| 20260831163457 | 61 | 336 | 0.0 | 1.0 | 0.00 | 0.00 | 0.00 | 83 | 1011.8 |
| 20260831162448 | 60 | 57 | 0.0 | 0.0 | 0.00 | 0.00 | 0.00 | 86 | 1011.8 |
| 20260831161445 | 59 | 49 | 1.0 | 2.0 | 0.00 | 0.00 | 0.00 | 87 | 1011.9 |
| 20260831160459 | 59 | 331 | 0.0 | 2.0 | 0.00 | 0.00 | 0.00 | 89 | 1011.9 |